Regional Weather Roundup
Issued by NWS Kansas City/Pleasant Hill, MO

Home | Current Version | Previous Version | Graphics & Text | Print | Product List | Glossary Off
Versions: 1 2 3 4 5 6 7 8 9 10 11 12 13 14 15 16 17 18 19 20 21 22 23 24 25 26 27 28 29 30 31 32 33 34 35 36 37 38 39 40 41 42 43 44 45 46 47 48 49 50

328
ASUS43 KEAX 091010
RWREAX

WEATHER ROUNDUP FOR EASTERN KANSAS AND NORTHWEST MISSOURI
NATIONAL WEATHER SERVICE KANSAS CITY/PLEASANT HILL MO
400 AM CST TUE FEB 09 2016

KSZ040-057-103>105-MOZ028-029-037-043-091100-
...KANSAS CITY METROPOLITAN AREA...

CITY           SKY/WX    TMP DP  RH WIND       PRES   REMARKS
K.C. INTL      CLEAR     24   8  50 N21G31    30.02S WCI   9
K.C. DOWNTOWN  CLEAR     27   9  46 NW20G31   30.03S WCI  13
LEES SUMMIT    CLEAR     25   8  48 NW23G37   30.02S WCI  10
OLATHE - IXD   CLEAR     27  14  58 NW16      30.04S WCI  15
OLATHE - OJC   CLEAR     26  10  50 NW20G31   30.02S WCI  12
LAWRENCE       PTCLDY    28  11  48 NW28G35   30.07S WCI  13

$$

MOZ001>008-011>017-020>025-030>033-038>040-044>046-053-054-091100-
...NORTHERN AND CENTRAL MISSOURI...

CITY           SKY/WX    TMP DP  RH WIND       PRES   REMARKS
ST. JOSEPH     CLEAR     22  11  62 N13       30.07R WCI  10
MOSBY          MOSUNNY   25  14  63 N13       30.03S WCI  13
WARRENSBURG    CLEAR     23  16  74 NW10G17   30.02R WCI  12
WHITEMAN AFB   CLEAR     21  14  72 NW13      29.99S WCI   9
CLINTON          N/A     23  18  80 NW6       30.01F WCI  16
SEDALIA        PTCLDY    22  11  62 NW22      30.00R WCI   6
WARSAW         NOT AVBL
CHILLICOTHE      N/A     19   8  62 N12G21    30.03R WCI   7
KIRKSVILLE     FLURRIES  16   6  65 NW12      29.96R WCI   3

$$

MOZ041-047>049-056>058-063>065-088>090-097-091100-
...EASTERN AND SOUTHERN MISSOURI...

CITY           SKY/WX    TMP DP  RH WIND       PRES   REMARKS
ST. LOUIS INTL FLURRIES  21  14  74 NW13      29.90S WCI   9
SPIRIT OF STL  LGT SNOW  21  15  78 NW8       29.91S WCI  11
COLUMBIA       CLOUDY    20   9  62 NW23G30   29.93S WCI   3
JEFFERSON CITY PTCLDY    21  10  62 NW13      29.97R WCI   9
ROLLA          CLOUDY    20  12  71 NW17      29.89S WCI   5
OSAGE BEACH    MOCLDY    23  10  58 W14G22    29.95S WCI  11
SPRINGFIELD    CLEAR     27  14  58 NW15G23   29.97F WCI  15
BRANSON        CLOUDY    28  16  59 NW9G17    29.99F WCI  20
JOPLIN         CLEAR     29  19  66 W12       30.05F WCI  19
WEST PLAINS    PTCLDY    25  11  55 NW13G22   29.91F WCI  14

$$

IAZ060-094-KSZ022-034>040-054-083-096-NEZ052-066-093-091100-
...KANSAS...SOUTHEAST NEBRASKA AND IOWA...

CITY           SKY/WX    TMP DP  RH WIND       PRES   REMARKS
TOPEKA         CLEAR     30  15  53 NW18G24   30.09S WCI  18
MANHATTAN      CLEAR     30  19  63 NW6       30.15R WCI  24
EMPORIA        CLEAR     30  17  58 NW12G22   30.09F WCI  20
CHANUTE        CLEAR     26  18  71 W8        30.09S WCI  18
WICHITA        PTCLDY    30  17  58 NW9       30.16S WCI  22
OMAHA          CLEAR     17   9  70 N18G24    30.13R WCI   1
LINCOLN        CLEAR     22  12  65 N18       30.14S WCI   7
FALLS CITY     CLEAR     23  11  60 NW24G35   30.08R WCI   7
LAMONI         CLOUDY    13   5  70 N18G25    30.00S WCI  -4
DES MOINES     FLURRIES  13   5  70 N12G24    30.02R WCI  -1

$$





USA.gov is the U.S. government's official web portal to all federal, state and local government web resources and services.